Onde está Igreja de Santa Clara en Portugal?

Igreja de Santa Clara está situado na região Santarem em Portugal!

Buscar o nome de uma cidade:

Igren, Igreja Matriz - Longroiva, Igreja, Igreja Matriz da Orca, Igreja Matriz de Numão

Aqui você vai encontrar a localização de Igreja de Santa Clara em um mapa.
Para ver como ele atualmente parece, abaixo estão algumas fotos da região, com webcams online.
Você também pode encontrar a distância para as principais cidades da região e de cidades do resto do Portugal.

Todos os lugares do mundo chamado .

new

Onde está Igreja de Santa Clara no mapa?


Webcams perto Igreja de Santa Clara

Benavente > North-East: AIrport, METAR: BENAV 180005Z 36004KT 17/14 Q1015.


Benavente > North-East: AIrport, METAR: BENAV 180005Z 36004KT 17/14 Q1015 - Dia
Actual
Benavente > North-East: AIrport, METAR: BENAV 180005Z 36004KT 17/14 Q1015 - Actual

Caldas da Rainha.


Caldas da Rainha - Dia
Actual
Caldas da Rainha - Actual

Abrantes > North-West: > North-West: Zona Alta (Torre).


Abrantes > North-West: > North-West: Zona Alta (Torre) - Dia
Actual
Abrantes > North-West: > North-West: Zona Alta (Torre) - Actual

Webcams provided by webcams.travel

Distâncias

Onde está Igreja de Santa Clara em relação a outros lugares?

Top 10 cidades em Santarem e distância de Igreja de Santa Clara.

Cidade#Populaçãokmmilhas
Santarém12938500
Entroncamento2198873119
Tomar3191684729
Torres Novas4145262918
Samora Correia5141543723
Abrantes6136464830
Ourém7127294528
Rio Maior8120642415
Fátima9117984226
Almeirim101155664

Top 10 cidades em Portugal e distância de Igreja de Santa Clara.

Cidade # Populaçãokmmilhas
Lisbon15177987144
Porto2249630212132
Amadora31788567245
Braga4121393257160
Setúbal51171098050
Coimbra610658010968
Queluz71033987245
Funchal8980411041647
Vila Nova de Gaia970810211131
Loures10662306339